GW6405 Weather Reports


time (UTC)temp
C
wind
direction
speed
KPH
gust
KPH
rain 1hr
cm
rain 24hr
cm
rain mn
cm
humidity
%
barometer
mb
20260504234817 22 152 0.0 0.0 0.00 0.00 0.00 47 1016.2
20260504234314 22 159 0.0 0.0 0.00 0.00 0.00 48 1016.0
20260504233811 22 169 0.0 0.0 0.00 0.00 0.00 47 1016.0
20260504233306 22 152 0.0 0.0 0.00 0.00 0.00 48 1016.1
20260504232803 23 166 0.0 0.0 0.00 0.00 0.00 49 1016.1
20260504232300 23 160 0.0 0.0 0.00 0.00 0.00 45 1016.2
20260504231757 23 178 0.0 0.0 0.00 0.00 0.00 47 1016.2
20260504231254 23 157 0.0 0.0 0.00 0.00 0.00 46 1016.2
20260504230750 23 180 0.0 0.0 0.00 0.00 0.00 46 1016.1
20260504230248 23 172 0.0 0.0 0.00 0.00 0.00 42 1016.3
20260504225747 23 225 0.0 0.0 0.00 0.00 0.00 41 1016.4
20260504225242 23 139 0.0 8.0 0.00 0.00 0.00 43 1016.1
20260504224740 23 213 0.0 0.0 0.00 0.00 0.00 44 1016.3
20260504224237 23 212 0.0 4.8 0.00 0.00 0.00 41 1016.1
20260504223733 24 158 0.0 0.0 0.00 0.00 0.00 42 1016.1
20260504223229 24 153 0.0 0.0 0.00 0.00 0.00 41 1016.3
20260504222726 24 128 0.0 4.8 0.00 0.00 0.00 42 1016.3
20260504222223 24 155 0.0 4.8 0.00 0.00 0.00 43 1016.2
20260504221720 25 227 3.2 8.0 0.00 0.00 0.00 43 1016.2
20260504221217 25 161 0.0 0.0 0.00 0.00 0.00 39 1016.0
20260504220714 25 221 6.4 11.3 0.00 0.00 0.00 38 1016.3
20260504220211 25 253 0.0 0.0 0.00 0.00 0.00 38 1016.4
20260504215708 25 124 0.0 0.0 0.00 0.00 0.00 37 1016.4
20260504215205 25 147 0.0 0.0 0.00 0.00 0.00 41 1016.4
20260504214700 25 157 0.0 0.0 0.00 0.00 0.00 42 1016.2
20260504214157 25 190 0.0 0.0 0.00 0.00 0.00 39 1016.3
20260504213654 25 134 0.0 0.0 0.00 0.00 0.00 38 1016.1
20260504213151 25 148 0.0 0.0 0.00 0.00 0.00 40 1016.2
20260504212647 25 160 0.0 0.0 0.00 0.00 0.00 38 1016.2
20260504212144 25 176 0.0 0.0 0.00 0.00 0.00 42 1016.2
20260504211641 25 178 0.0 0.0 0.00 0.00 0.00 38 1016.0
20260504211137 25 205 0.0 0.0 0.00 0.00 0.00 40 1016.1
20260504210636 25 185 0.0 0.0 0.00 0.00 0.00 39 1016.1
20260504210131 25 165 3.2 8.0 0.00 0.00 0.00 39 1016.3
20260504205629 25 152 0.0 0.0 0.00 0.00 0.00 40 1016.4
20260504205126 25 53 0.0 4.8 0.00 0.00 0.00 35 1016.2
20260504204625 25 148 0.0 4.8 0.00 0.00 0.00 38 1016.2
20260504204123 25 131 3.2 4.8 0.00 0.00 0.00 36 1016.2
20260504203622 25 183 3.2 4.8 0.00 0.00 0.00 34 1016.6
20260504203120 25 183 0.0 0.0 0.00 0.00 0.00 39 1016.6
20260504202619 25 136 0.0 8.0 0.00 0.00 0.00 37 1016.6
20260504202116 25 189 0.0 11.3 0.00 0.00 0.00 35 1016.6
20260504201613 26 187 1.6 8.0 0.00 0.00 0.00 36 1016.7
20260504201111 27 141 0.0 0.0 0.00 0.00 0.00 35 1016.7
20260504200608 26 157 0.0 0.0 0.00 0.00 0.00 35 1016.7
20260504200104 27 147 0.0 0.0 0.00 0.00 0.00 34 1016.8
20260504195600 26 202 3.2 8.0 0.00 0.00 0.00 33 1016.7
20260504195057 27 141 0.0 0.0 0.00 0.00 0.00 36 1016.8
20260504194554 27 167 0.0 4.8 0.00 0.00 0.00 34 1017.0
20260504194049 26 145 0.0 16.1 0.00 0.00 0.00 33 1016.8
20260504193546 27 174 4.8 8.0 0.00 0.00 0.00 32 1016.9
20260504193045 26 169 0.0 0.0 0.00 0.00 0.00 35 1017.2
20260504192543 27 157 0.0 0.0 0.00 0.00 0.00 34 1017.5
20260504192040 26 155 0.0 4.8 0.00 0.00 0.00 36 1017.5
20260504191538 27 202 0.0 4.8 0.00 0.00 0.00 35 1017.4
20260504191034 26 206 0.0 0.0 0.00 0.00 0.00 35 1017.5
20260504190530 27 121 0.0 4.8 0.00 0.00 0.00 30 1017.6
20260504190026 27 196 0.0 0.0 0.00 0.00 0.00 32 1017.8
20260504185524 27 94 0.0 0.0 0.00 0.00 0.00 34 1017.7
20260504185020 26 170 3.2 4.8 0.00 0.00 0.00 38 1017.8
20260504184515 26 163 0.0 0.0 0.00 0.00 0.00 35 1017.9
20260504184011 26 133 0.0 4.8 0.00 0.00 0.00 34 1017.8
20260504183508 26 148 0.0 4.8 0.00 0.00 0.00 35 1018.0
20260504183007 25 149 0.0 8.0 0.00 0.00 0.00 36 1018.1
20260504182503 26 197 0.0 0.0 0.00 0.00 0.00 36 1018.0
20260504182000 25 136 1.6 8.0 0.00 0.00 0.00 41 1018.3
20260504181457 26 139 0.0 0.0 0.00 0.00 0.00 36 1018.1
20260504180956 25 194 3.2 8.0 0.00 0.00 0.00 38 1018.1
20260504180454 26 219 0.0 0.0 0.00 0.00 0.00 37 1018.3
20260504175953 26 309 0.0 0.0 0.00 0.00 0.00 32 1018.4
20260504175449 26 155 0.0 4.8 0.00 0.00 0.00 36 1018.1
20260504174947 26 134 0.0 0.0 0.00 0.00 0.00 37 1018.5
20260504174444 25 125 0.0 0.0 0.00 0.00 0.00 37 1018.5
20260504173942 25 40 0.0 4.8 0.00 0.00 0.00 34 1018.5
20260504173437 27 104 0.0 0.0 0.00 0.00 0.00 36 1018.6
20260504172936 25 82 0.0 0.0 0.00 0.00 0.00 37 1018.8
20260504172431 25 55 4.8 8.0 0.00 0.00 0.00 38 1018.9
20260504171928 25 193 4.8 8.0 0.00 0.00 0.00 43 1018.5
20260504171425 25 247 3.2 4.8 0.00 0.00 0.00 38 1018.9
20260504170922 25 21 0.0 0.0 0.00 0.00 0.00 37 1019.0
20260504170418 24 192 0.0 0.0 0.00 0.00 0.00 39 1018.9
20260504160337 25 159 0.0 4.8 0.00 0.00 0.00 42 1019.5
20260504150802 24 132 0.0 0.0 0.00 0.00 0.00 45 1019.9
20260504150258 23 173 0.0 0.0 0.00 0.00 0.00 45 1019.8
20260504141229 21 186 1.6 4.8 0.00 0.00 0.00 48 1020.3
20260504140725 21 144 0.0 0.0 0.00 0.00 0.00 53 1020.1
20260504140220 20 168 0.0 0.0 0.00 0.00 0.00 52 1020.3
20260504130649 21 133 0.0 0.0 0.00 0.00 0.00 56 1019.9
20260504130145 21 130 0.0 0.0 0.00 0.00 0.00 58 1020.2
20260504120110 8 113 0.0 0.0 0.00 0.00 0.00 99 1019.8
20260504110537 6 90 0.0 0.0 0.00 0.00 0.00 99 1019.3
20260504100459 6 92 0.0 0.0 0.00 0.00 0.00 99 1019.3
20260504081857 7 95 0.0 0.0 0.00 0.00 0.00 98 1019.3
20260504081354 7 95 0.0 0.0 0.00 0.00 0.00 98 1019.5
20260504080850 7 95 0.0 0.0 0.00 0.00 0.00 98 1019.5
20260504080347 7 95 0.0 0.0 0.00 0.00 0.00 97 1019.4
20260504070315 7 92 0.0 0.0 0.00 0.00 0.00 96 1019.8
20260504060235 8 93 0.0 0.0 0.00 0.00 0.00 94 1019.6
20260504050703 9 100 0.0 0.0 0.00 0.00 0.00 89 1020.3
20260504050200 9 104 0.0 0.0 0.00 0.00 0.00 88 1020.2
20260504045658 9 104 0.0 0.0 0.00 0.00 0.00 88 1020.3
20260504045157 10 107 0.0 0.0 0.00 0.00 0.00 87 1020.3
20260504044655 10 111 0.0 0.0 0.00 0.00 0.00 86 1020.5
20260504044152 10 111 0.0 0.0 0.00 0.00 0.00 86 1020.5
20260504043649 10 111 0.0 0.0 0.00 0.00 0.00 86 1020.5
20260504043146 10 112 0.0 0.0 0.00 0.00 0.00 85 1020.4
20260504042644 10 111 0.0 0.0 0.00 0.00 0.00 84 1020.2
20260504042140 10 112 0.0 0.0 0.00 0.00 0.00 84 1020.3
20260504041636 10 104 0.0 0.0 0.00 0.00 0.00 84 1020.2
20260504041132 10 114 0.0 0.0 0.00 0.00 0.00 84 1020.3
20260504040630 10 108 0.0 0.0 0.00 0.00 0.00 82 1020.4
20260504040126 10 108 0.0 0.0 0.00 0.00 0.00 82 1020.2
20260504035623 10 108 0.0 0.0 0.00 0.00 0.00 82 1020.4
20260504035120 10 108 0.0 0.0 0.00 0.00 0.00 82 1020.3
20260504034618 11 109 0.0 0.0 0.00 0.00 0.00 81 1020.3
20260504034114 11 114 0.0 0.0 0.00 0.00 0.00 81 1020.3
20260504033612 11 115 0.0 0.0 0.00 0.00 0.00 81 1020.4
20260504033109 11 107 0.0 0.0 0.00 0.00 0.00 81 1020.3
20260504032606 11 106 0.0 0.0 0.00 0.00 0.00 82 1020.3
20260504032103 11 110 0.0 0.0 0.00 0.00 0.00 81 1020.3
20260504031600 11 110 0.0 0.0 0.00 0.00 0.00 78 1020.4
20260504031056 11 110 0.0 0.0 0.00 0.00 0.00 77 1020.3
20260504030553 11 107 0.0 0.0 0.00 0.00 0.00 77 1020.3
20260504030049 11 112 0.0 0.0 0.00 0.00 0.00 74 1020.3
20260504025547 12 102 0.0 0.0 0.00 0.00 0.00 74 1020.3
20260504025043 12 93 0.0 0.0 0.00 0.00 0.00 73 1020.3
20260504024541 12 110 0.0 0.0 0.00 0.00 0.00 74 1020.4
20260504024037 12 112 0.0 0.0 0.00 0.00 0.00 73 1020.3
20260504023534 12 109 0.0 0.0 0.00 0.00 0.00 72 1020.0
20260504023030 12 108 0.0 0.0 0.00 0.00 0.00 72 1020.2
20260504022526 12 112 0.0 0.0 0.00 0.00 0.00 71 1020.2
20260504022023 12 111 0.0 0.0 0.00 0.00 0.00 70 1019.9
20260504021520 13 111 0.0 0.0 0.00 0.00 0.00 70 1019.9
20260504021017 13 113 0.0 0.0 0.00 0.00 0.00 70 1019.8
20260504020514 13 106 0.0 0.0 0.00 0.00 0.00 70 1019.7
20260504020010 13 103 0.0 0.0 0.00 0.00 0.00 69 1019.4
20260504015507 13 103 0.0 0.0 0.00 0.00 0.00 71 1019.4
20260504015003 13 105 0.0 0.0 0.00 0.00 0.00 73 1019.4
20260504014459 13 106 0.0 0.0 0.00 0.00 0.00 74 1019.2
20260504013956 13 123 0.0 0.0 0.00 0.00 0.00 77 1019.3
20260504013454 13 131 0.0 0.0 0.00 0.00 0.00 76 1019.3
20260504012950 13 131 0.0 0.0 0.00 0.00 0.00 76 1019.2
20260504012448 14 131 0.0 0.0 0.00 0.00 0.00 76 1018.9
20260504011946 14 131 0.0 0.0 0.00 0.00 0.00 75 1018.7
20260504011442 14 131 0.0 0.0 0.00 0.00 0.00 75 1018.8
20260504010938 15 131 0.0 0.0 0.00 0.00 0.00 73 1018.7
20260504010434 15 131 0.0 0.0 0.00 0.00 0.00 71 1018.9
20260504005930 15 132 0.0 0.0 0.00 0.00 0.00 70 1018.7
20260504005427 15 132 0.0 0.0 0.00 0.00 0.00 67 1018.6
20260504004925 15 132 0.0 0.0 0.00 0.00 0.00 67 1018.7
20260504004422 16 132 0.0 0.0 0.00 0.00 0.00 63 1018.8
20260504003919 16 132 0.0 0.0 0.00 0.00 0.00 62 1018.5
20260504003415 16 132 0.0 0.0 0.00 0.00 0.00 59 1018.4
20260504002912 16 138 0.0 0.0 0.00 0.00 0.00 54 1018.7
20260504002409 17 121 0.0 0.0 0.00 0.00 0.00 52 1018.6
20260504001907 17 128 0.0 0.0 0.00 0.00 0.00 52 1018.4
20260504001404 17 123 0.0 0.0 0.00 0.00 0.00 50 1018.4
20260504000900 17 124 0.0 0.0 0.00 0.00 0.00 50 1018.5
20260504000358 17 124 0.0 0.0 0.00 0.00 0.00 48 1018.4
20260503235855 18 138 0.0 0.0 0.00 0.00 0.00 48 1018.3
20260503235353 18 139 0.0 0.0 0.00 0.00 0.00 47 1018.4